Simultaneous Nadir Overpasses (SNOs) Predictions

Prediction of SNOs between METOP-B and TERRA Satellite Orbit:

Table of predicted SNOs for the next 14.0 days since TLE Epoch: 9/26/2025
Index Date (METOP-B) Time (METOP-B) Lat,Lon (METOP-B) SZA (METOP-B ) Date (TERRA) Time (TERRA) Lat,Lon (TERRA) SZA (TERRA ) Distance(km) Time Diff (sec)
1 09/27/2025 14:41:34 -74.97, 129.17 103.08 09/27/2025 14:42:05 -74.97, 129.19 103.08 0.69 31
2 09/27/2025 15:31:48 76.16, -59.79 78.03 09/27/2025 15:30:59 76.15, -59.88 78.02 2.95 49
3 09/30/2025 03:30:39 -74.68, -63.89 102.36 09/30/2025 03:31:37 -74.67, -63.97 102.38 2.40 58
4 09/30/2025 04:21:00 75.55, 105.96 78.44 09/30/2025 04:20:37 75.55, 105.98 78.44 0.77 23
5 10/02/2025 17:10:10 75.06, -87.76 78.97 10/02/2025 17:10:13 75.06, -87.73 78.97 1.02 3
6 10/02/2025 17:58:07 -81.02, 119.20 93.84 10/02/2025 17:56:54 -81.49, 117.95 93.55 57.00 73
7 10/05/2025 05:59:16 74.74, 79.11 79.66 10/05/2025 05:59:45 74.73, 79.05 79.64 2.15 29
8 10/05/2025 06:49:40 -75.63,-110.98 99.53 10/05/2025 06:48:48 -75.63,-110.96 99.52 0.73 52
9 10/07/2025 18:48:25 74.27,-114.39 80.20 10/07/2025 18:49:19 74.26,-114.46 80.18 2.67 54
10 10/07/2025 19:38:47 -75.27, 55.66 98.90 10/07/2025 19:38:20 -75.27, 55.66 98.89 0.20 27
11 10/10/2025 07:40:54 63.09, 37.29 72.14 10/10/2025 07:42:07 62.90, 38.43 71.69 61.30 73
12 10/10/2025 08:27:59 -74.65,-138.33 98.50 10/10/2025 08:27:56 -74.66,-138.27 98.49 1.91 3



Historial Predications of SNOs between METOP-B and TERRA
